Regional Weather Roundup
Issued by NWS Midland/Odessa, TX

Skip options and go directly to product.
Home | Oldest Version | Previous Version | Current Version | All | Text Only | Save Text | Print | Product List | Glossary Off

Skip product version selection by date and time.   

977
ASUS44 KMAF 311910
RWRMAF
MIDLAND AREA WEATHER ROUNDUP
NATIONAL WEATHER SERVICE MIDLAND TX
200 PM CDT FRI JUL 31 2015

...IN SOUTHWEST TEXAS AND SOUTHEAST NEW MEXICO...

CITY           SKY/WX    TMP DP  RH WIND       PRES   REMARKS
ALPINE         PTSUNNY   87  52  30 NE10G18   30.31F
ANDREWS        FAIR      94  52  23 S5        30.19F
ARTESIA        SUNNY     90  57  33 VRB6      30.21F
BIG SPRING     SUNNY     92  54  27 W5        30.17F
CARLSBAD       SUNNY     93  57  29 VRB6      30.18F
DRYDEN           N/A     98  59  27 SE9       30.09F
FORT STOCKTON  MOSUNNY   94  54  25 E13G23    30.16F
GUAD PASS      MOSUNNY   81  56  42 E15G23    30.35F
HOBBS          MOSUNNY   91  48  22 SE10      30.22F
MARFA          MOSUNNY   88  52  29 E18       30.29F
MIDLAND AIRPK  SUNNY     97  52  21 E7        30.17F
MIDLAND INTL   MOSUNNY   94  54  25 VRB7      30.16F
ODESSA         SUNNY     96  52  22 S8        30.17F
PECOS          SUNNY     98  51  20 E8        30.12F
PRESIDIO       FAIR      96  51  21 NE7       30.11F
SEMINOLE       PTSUNNY   95  50  21 CALM      30.21F
SNYDER         SUNNY     93  59  31 CALM      30.15F
WINK           SUNNY     96  53  23 S5G25     30.14F
$$
...OTHER STATIONS IN TEXAS...

CITY           SKY/WX    TMP DP  RH WIND       PRES   REMARKS
ABILENE        SUNNY     99  59  26 VRB5G16   30.10F
AMARILLO       PTSUNNY   77  66  68 NE10      30.27F
AUSTIN         MOSUNNY  100  70  37 NE9G23    30.00F HX 107
BROWNSVILLE    CLOUDY    89  74  60 NE10      30.00F
CORPUS CHRISTI PTSUNNY   99  68  36 N9        29.98F HX 104
DALLAS FTW     MOSUNNY   96  70  42 NE8       30.05F HX 102
DEL RIO        PTSUNNY   97  64  33 NE5       30.02F
EL PASO        MOSUNNY   90  53  28 E8        30.20F
HOUSTON INT    MOSUNNY   98  75  47 N9        29.98F HX 110
LUBBOCK        MOSUNNY   92  61  35 VRB5      30.21F
SAN ANGELO     SUNNY     98  60  28 MISG      30.11F
SAN ANTONIO    PTSUNNY   98  66  34 VRB5      30.03F HX 101
WACO           SUNNY     99  71  40 E6        30.02F HX 107
WICHITA FALLS  NOT AVBL
$$
...OTHER LOCATIONS IN NEW MEXICO...

CITY           SKY/WX    TMP DP  RH WIND       PRES   REMARKS
ALAMAGORDO     MOSUNNY   90  55  31 S12       30.23F
ALBUQUERQUE    PTSUNNY   81  59  47 E7        30.33F
CANNON AFB     PTSUNNY   79  64  60 N5        30.29F
CLOVIS         PTSUNNY   81  63  54 E7        30.30F
HOLLOMAN AFB   SUNNY     89  57  33 W8        30.21F
ROSWELL        SUNNY     91  60  35 MISG      30.22F
RUIDOSO          N/A    N/A N/A N/A MISG        N/A
SANTA FE       CLOUDY    75  58  55 SW9       30.40F
TRUTH OR CONSE MOSUNNY   82  58  43 SE5       30.28F
TUCUMCARI      CLOUDY    74  66  76 S6        30.28F
$$

USA.gov is the U.S. government's official web portal to all federal, state and local government web resources and services.